STARLINK-1361, 45567

Orbit data source: Space-Track

STARLINK-1361, 45567 is a payload satellite owned by SpaceX/Seattle (US) in LEO that was launched on Wed, 22 Apr 2020 UTC via an FALCON 9 launch vehicle from the Air Force Eastern Test Range (AFETR). Payload-class satellites include a variety of spacecraft equipped with specific instruments for various scientific and technological missions. These include communications satellites like Starlink; space stations such as the ISS; scientific satellites like the Hubble; Earth observation satellites from companies like Planet Labs, Umbra, and HawkEye 360; GPS; miniature CubeSats for education and research; and military/defense satellites.

Loading next visibility...
Identifier
45567, 2020-025AN
Orbit
LEO
Country
Flag of USUS
Related business
Manufacturer
SpaceX/Seattle
Mission
Operational Commercial Communications
Bus & Motor
STARLINK, Unknown motor
Mass
260 kg wet, ~248 kg dry
Launch date (UTC)
2020-04-22 (5 years ago)
Launch vehicle
FALCON 9
Launch site
Air Force Eastern Test Range (AFETR)
Object type
Payload
Rocket body
Debris
Shape & HBR
Box + 1 Pan, 4.4 m
Radar Cross Section
13.562 m², Large (>1 m²)

Expand to show TLE details & history
Last TLE update: 17 hours ago

TLE from 17 hours ago
0 STARLINK-1361
1 45567U 20025AN  25259.06698387  .00002557  00000-0  19045-3 0  9997
2 45567  53.0542 150.5303 0001496  87.6542 272.4618 15.06407375299050
Epoch: 2025-09-16T01:36Z
TLE epoch observation values (Epoch: 2025-09-16T01:36:27.406Z)
Latitude
-0.00004°
Longitude
131.15347°
Altitude
548.024 km
Speed
7.589 km/s
True Right ascension
10h 02m 07s
True Declination
0° 00' 00"
Sunlit
Object was in daylight at epoch
Visualization orbit readout
Latitude
Unknown
Longitude
Unknown
Altitude
Unknown
Speed
Unknown
Apparent Right ascension
Unknown
Apparent Declination
Unknown
Sunlit
N/A
Visualization observer readout
Local Sidereal Time
10:56:06
Azimuth
Unknown
Elevation
Unknown
Doppler factor
Unknown
Orbital elements
Apogee altitude
548.496 km
Perigee altitude
546.424 km
Semi-major axis
6,925.597 km
Eccentricity
0.00015
Inclination
53.0542°
RAAN
150.5303°
Arg. of periapsis
87.6542°
True anomaly
272.44467°
Mean anomaly
272.4618°
Eccentric anomaly
272.45324°
Mean motion
3.7658 °/min
Orbital period
95.6 mins
BSTAR
0.00019045
Loading maneuver chart data...
Computing Atmospheric mass density...
Loading historical data...
Loading historical data...
Loading historical data...
Loading historical data...
Loading historical data...
Loading historical data...
Loading historical data...

Documentation

Showing up to 5 results
|